This is the latest recevied weather packets stored in our database for station/object LA3SP-1. If no packets are shown the sender has not sent any weather packets the latest 1 day(s).
| Time | Temp. | Humidity | Pressure | Rain* | Wind** | Luminosity | Snow |
|---|---|---|---|---|---|---|---|
| 1778058182 | 1.67° C | 56% | 1007 hPa | 0 mm | 1.79 m/s, 270° | - | - |
| 1778057047 | 1.11° C | 56% | 1007 hPa | 0 mm | 0 m/s | - | - |
| 1778056445 | 1.67° C | 56% | 1007 hPa | 0 mm | 1.79 m/s, 270° | - | - |
| 1778055844 | 1.67° C | 58% | 1006.9 hPa | 0 mm | 0 m/s | - | - |
| 1778054642 | 0.56° C | 58% | 1006.8 hPa | 0 mm | 1.79 m/s, 270° | - | - |
| 1778054142 | 0.56° C | 61% | 1006.7 hPa | 0 mm | 0.45 m/s, 315° | - | - |
| 1778054040 | 1.11° C | 59% | 1006.8 hPa | 0 mm | 0.45 m/s, 247° | - | - |
| 1778053439 | 0.56° C | 61% | 1006.7 hPa | 0 mm | 0.45 m/s, 315° | - | - |
| 1778052837 | -0.56° C | 62% | 1006.7 hPa | 0 mm | 0.89 m/s, 202° | - | - |
| 1778052237 | -1.11° C | 64% | 1006.7 hPa | 0 mm | 0 m/s | - | - |
| 1778051033 | -2.22° C | 65% | 1006.6 hPa | 0 mm | 0 m/s | - | - |
| 1778050433 | -2.22° C | 65% | 1006.6 hPa | 0 mm | 0.45 m/s, 292° | - | - |
| 1778049830 | -2.78° C | 66% | 1006.5 hPa | 0 mm | 0.45 m/s, 270° | - | - |
| 1778049229 | -2.78° C | 67% | 1006.6 hPa | 0 mm | 0.89 m/s, 247° | - | - |
| 1778048627 | -2.78° C | 67% | 1006.5 hPa | 0 mm | 1.34 m/s, 247° | - | - |
| 1778048026 | -2.78° C | 67% | 1006.6 hPa | 0 mm | 0.89 m/s, 247° | - | - |
| 1778047425 | -3.33° C | 68% | 1006.6 hPa | 0 mm | 2.24 m/s, 315° | - | - |
| 1778046222 | -4.44° C | 70% | 1006.8 hPa | 0 mm | 0 m/s | - | - |
| 1778045681 | -5° C | 70% | 1006.9 hPa | 0 mm | 0 m/s | - | - |
| 1778045621 | -5° C | 70% | 1006.9 hPa | 0 mm | 0 m/s | - | - |
| 1778045019 | -5° C | 71% | 1006.8 hPa | 0 mm | 1.34 m/s, 292° | - | - |
| 1778044419 | -5.56° C | 72% | 1007 hPa | 0 mm | 0.89 m/s, 315° | - | - |
| 1778043816 | -6.11° C | 73% | 1006.8 hPa | 0 mm | 1.79 m/s, 315° | - | - |
| 1778043365 | -6.67° C | 73% | 1006.8 hPa | 0 mm | 0 m/s | - | - |
| 1778043215 | -6.67° C | 73% | 1006.8 hPa | 0 mm | 0 m/s | - | - |
* Rain latest 24 hours (hover to see other rain measurements)
** Current wind speed in m/s (hover to see current wind gust speed)